Location: Apeadero de Los Molinos-Guadarrama
(40.7091°N, 4.0689°W)
Time: 12:26:18
(UTC+00:00)

Cosmos 2181 Rocket - Pass Details

Date: 14 May 2021
Orbit: 952 x 1014 km, 82.9° (Epoch: 18 June)

Event Time Altitude Azimuth Distance (km) Brightness Sun altitude
Exits shadow 23:06:29 65° 236° (SW) 1,051 4.0 -28.5°
Maximum altitude 23:07:11 71° 278° (W) 1,012 4.0 -28.5°
Drops below altitude 10° 23:13:18 10° 3° (N) 2,688 7.1 -28.8°
Sets 23:15:49 0° 6° (N) 3,637 8.0 -29.0°
